[[{"header":{"parameterUnit":"m.s-1","parameterCategory":1,"la1":30.2991,"la2":30.254,"lo1":-89.0895,"lo2":-89.0444,"dy":0.0017,"dx":0.0017,"nx":28,"ny":28,"refTime":"2024-08-06T09:00:00:Z","depth":0,"parameterNumber":2,"parameterNumberName":"U-component_of_WINDS"},"data":[0,0,0,0,0,0,0,0,0,0,0,0,0,0,0,0,0,0,0,0,0,0,0,0,0,0,0,0,0,0,0,0,0,0,0,0,0,0,0,0,0,0,0,0,0,0,0,0,0,0,0,0,0,0,0,0,0,0,2.5244,2.5245,0,2.5293,2.5293,2.5294,2.5251,2.5249,2.5247,2.5246,2.5296,2.5299,2.5302,0,0,0,0,0,0,0,0,0,0,0,0,0,2.5117,2.5119,2.5244,2.5245,2.5246,2.5293,2.5293,2.5294,2.5251,2.5249,2.5247,2.5245,2.5295,2.5299,2.5302,0,0,0,0,0,0,0,0,0,0,0,0,0,2.5169,2.512,2.5244,2.523,2.5229,2.5293,2.5293,2.5294,2.5251,2.5249,2.5246,2.5244,2.5294,2.5298,2.5303,2.5383,0,0,2.5316,2.5318,0,0,0,0,0,0,0,0,2.5166,2.5174,2.5231,2.5231,2.523,2.5263,2.5267,2.5324,2.5252,2.5243,2.5245,2.5242,2.5287,2.5292,2.5307,2.5386,2.5388,2.5317,2.532,2.5321,2.5323,0,0,0,0,0,0,0,2.5163,2.5172,2.5263,2.5232,2.5232,2.5221,2.5226,2.5277,2.5279,2.5244,2.5241,2.5247,2.5286,2.5303,2.5308,2.5389,2.5317,2.5321,2.5323,2.5325,2.5537,2.554,0,0,0,0,0,0,2.516,2.5169,2.5262,2.5265,2.5191,2.5226,2.5231,2.5255,2.5279,2.528,2.5249,2.5245,2.5296,2.5303,2.531,2.5406,2.5321,2.5326,2.5328,2.5534,2.5538,2.5541,0,0,0,0,0,0,2.5158,2.5169,2.526,2.5216,2.5227,2.5231,2.5258,2.5257,2.5274,2.5283,2.5283,2.5265,2.5295,2.5303,2.5366,2.5407,2.5328,2.5332,2.5531,2.5535,2.5539,2.56,0,0,0,0,0,0,2.5154,2.5168,2.5199,2.5217,2.5229,2.5315,2.5261,2.526,2.5282,2.5276,2.5298,2.5299,2.5293,2.5359,2.537,2.5412,2.5335,2.5527,2.5533,2.5538,2.5594,2.5606,2.5616,0,0,0,0,0,2.515,2.5214,2.52,2.5212,2.5267,2.5317,2.5324,2.5316,2.5285,2.5316,2.5322,2.5299,2.5401,2.5366,2.5378,2.5422,2.5524,2.5531,2.5538,2.5589,2.5604,2.5616,0,0,0,0,0,0,2.52,2.5216,2.5201,2.5273,2.5294,2.531,2.5348,2.5331,2.5362,2.5355,2.5344,2.5349,2.5415,2.5425,2.5385,2.5502,2.5458,2.5467,2.5493,2.5507,2.5517,2.5514,2.5339,0,0,0,0,0,2.5219,2.5258,2.527,2.5332,2.5344,2.5344,2.5366,2.5357,2.5379,2.5388,2.5398,2.5421,2.5458,2.5483,2.5518,2.5595,2.56,2.5632,2.5643,2.5651,2.566,2.5703,2.5717,2.5563,2.5563,2.5563,0,0,2.526,2.5273,2.5298,2.5343,2.5358,2.5399,2.5352,2.5397,2.5428,2.5395,2.5454,2.5463,2.5487,2.5558,2.559,2.5568,2.5703,2.566,2.5667,2.567,2.5711,2.5726,2.5739,2.5567,2.5566,2.5566,0,0,2.5354,2.5368,2.5422,2.5439,2.5463,2.5463,2.5476,2.5495,2.5499,2.5559,2.5535,2.5572,2.5636,2.5655,2.5672,2.5776,2.5756,2.5787,2.5844,2.5886,2.5898,2.5909,2.5946,2.596,2.5796,2.5796,2.5796,0,2.5402,2.5462,2.5452,2.5499,2.552,2.5492,2.5546,2.5563,2.5598,2.5613,2.5588,2.5669,2.5683,2.5758,2.5784,2.5799,2.5814,2.5785,2.5897,2.5908,2.5918,2.5953,2.5968,2.58,2.5799,2.5799,2.5798,0,2.552,2.5562,2.5603,2.5637,2.5662,2.5713,2.5711,2.5737,2.5727,2.5731,2.5792,2.5809,2.5847,2.5864,2.5854,2.5938,2.5924,2.5899,2.5854,2.5936,2.597,2.5983,2.5805,2.5804,2.5802,2.5801,0,0,2.5647,2.5675,2.569,2.5705,2.5731,2.5764,2.5814,2.5851,2.5874,2.59,2.5942,2.5997,2.5974,2.5995,2.5987,2.6024,2.6106,2.5994,2.5994,2.6015,2.62,2.622,2.6236,2.6093,2.6095,2.6097,2.6199,0,2.5743,2.5829,2.5822,2.5904,2.5944,2.5918,2.5962,2.5983,2.5988,2.6023,2.6028,2.6068,2.6034,2.6046,2.6081,2.6088,2.6143,2.6081,2.6133,2.6135,2.6128,2.6253,2.6273,2.6368,2.6212,2.6214,2.6215,0,2.5866,2.5896,2.5982,2.6002,2.6018,2.6058,2.6092,2.6125,2.6149,2.615,2.6173,2.616,2.6211,2.6166,2.6237,2.6195,2.6216,2.6223,2.6226,2.6231,2.618,2.6262,2.6398,2.6412,2.6236,2.6234,2.6233,0,2.5951,2.6012,2.6072,2.6086,2.6111,2.6139,2.6151,2.6172,2.6195,2.6225,2.624,2.6276,2.6295,2.6324,2.6321,2.6288,2.6394,2.6348,2.6396,2.6397,2.642,2.6418,2.6562,2.6433,2.6433,2.6433,2.6432,0,2.6059,2.6113,2.611,2.6147,2.6208,2.6199,2.6259,2.6267,2.6286,2.6325,2.6305,2.6342,2.6336,2.6373,2.6371,2.6431,2.644,2.6442,2.6441,2.6444,2.6444,2.6458,2.6451,2.6436,2.6435,2.6435,2.6434,0,2.6164,2.6164,2.6228,2.6246,2.6252,2.6296,2.6312,2.6347,2.6351,2.64,2.6411,2.6417,2.6459,2.6459,2.6508,2.6507,2.658,2.6571,2.6572,2.6571,2.662,2.6615,2.6777,2.6798,2.6655,2.6657,2.6658,0,2.6233,2.6274,2.6297,2.6321,2.6335,2.6374,2.6398,2.6392,2.6417,2.6448,2.648,2.652,2.6553,2.6623,2.6631,2.6669,2.6661,2.6715,2.6667,2.6669,2.6663,2.666,2.6665,2.6725,2.6727,2.6728,2.6729,0,2.6356,2.6354,2.6389,2.6424,2.6453,2.648,2.6506,2.6527,2.6523,2.6553,2.6597,2.6622,2.6672,2.6714,2.675,2.6763,2.6746,2.6744,2.6758,2.6761,2.676,2.6762,2.6599,2.6741,2.6739,2.6739,2.6738,2.6737,2.6445,2.6481,2.6503,2.6542,2.6561,2.6585,2.6619,2.6627,2.6663,2.6703,2.6698,2.6747,2.677,2.6817,2.6833,2.6872,2.6853,2.6872,2.6877,2.6882,2.6888,2.6754,2.6879,2.6878,2.6878,2.6878,2.6877,0,2.6567,2.658,2.6617,2.6653,2.6685,2.6666,2.6693,2.6721,2.6764,2.6787,2.682,2.687,2.6911,2.6923,2.6962,2.6991,2.6984,2.7001,2.6999,2.7003,2.6902,2.6887,2.7006,2.7006,2.7006,2.7006,2.7006,2.7006,2.6635,2.6694,2.6695,2.6764,2.6777,2.6825,2.6842,2.6865,2.6883,2.6941,2.6974,2.6982,2.7001,2.7041,2.7078,2.7081,2.7096,2.7117,2.7116,2.7022,2.7009,2.6997,2.6983,2.712,2.712,2.7213,2.7214,2.7215]},{"header":{"parameterUnit":"m.s-1","parameterCategory":1,"la1":30.2991,"la2":30.254,"lo1":-89.0895,"lo2":-89.0444,"dy":0.0017,"dx":0.0017,"nx":28,"ny":28,"refTime":"2024-08-06T09:00:00:Z","depth":0,"parameterNumber":3,"parameterNumberName":"V-component_of_WINDS"},"data":[0,0,0,0,0,0,0,0,0,0,0,0,0,0,0,0,0,0,0,0,0,0,0,0,0,0,0,0,0,0,0,0,0,0,0,0,0,0,0,0,0,0,0,0,0,0,0,0,0,0,0,0,0,0,0,0,0,0,-2.3784,-2.3785,0,-2.388,-2.3881,-2.3882,-2.3862,-2.3861,-2.3859,-2.3857,-2.3957,-2.3961,-2.3966,0,0,0,0,0,0,0,0,0,0,0,0,0,-2.3585,-2.3589,-2.3784,-2.3785,-2.3786,-2.388,-2.3881,-2.3883,-2.3863,-2.386,-2.3858,-2.3856,-2.3956,-2.3961,-2.3966,0,0,0,0,0,0,0,0,0,0,0,0,0,-2.3676,-2.359,-2.3784,-2.3788,-2.3789,-2.388,-2.3881,-2.3883,-2.3863,-2.386,-2.3858,-2.3855,-2.3954,-2.396,-2.3967,-2.406,0,0,-2.3987,-2.3989,0,0,0,0,0,0,0,0,-2.367,-2.3683,-2.3786,-2.3788,-2.3789,-2.3856,-2.3848,-2.3943,-2.3864,-2.3835,-2.3857,-2.3854,-2.3926,-2.3935,-2.3959,-2.4065,-2.4069,-2.3987,-2.3991,-2.3994,-2.3996,0,0,0,0,0,0,0,-2.3664,-2.3679,-2.3822,-2.3787,-2.3789,-2.3785,-2.3795,-2.3866,-2.3894,-2.3837,-2.3836,-2.3848,-2.3926,-2.3952,-2.3961,-2.4071,-2.3987,-2.3993,-2.3997,-2.3999,-2.426,-2.4263,0,0,0,0,0,0,-2.3656,-2.3674,-2.3819,-2.3825,-2.3722,-2.3791,-2.3802,-2.3838,-2.3894,-2.3899,-2.385,-2.3846,-2.3943,-2.3953,-2.3964,-2.4078,-2.3994,-2.4,-2.4004,-2.4257,-2.426,-2.4264,0,0,0,0,0,0,-2.3652,-2.3669,-2.3815,-2.3749,-2.3767,-2.3797,-2.3837,-2.3841,-2.3867,-2.3903,-2.3908,-2.3871,-2.3941,-2.3955,-2.4037,-2.4081,-2.4003,-2.4009,-2.4253,-2.4258,-2.4262,-2.4306,0,0,0,0,0,0,-2.3646,-2.3668,-2.3703,-2.375,-2.3771,-2.3886,-2.384,-2.3845,-2.3878,-2.3874,-2.3924,-2.393,-2.394,-2.4027,-2.4043,-2.4089,-2.4014,-2.4249,-2.4255,-2.4261,-2.4301,-2.4312,-2.4321,0,0,0,0,0,-2.3639,-2.3712,-2.3705,-2.3723,-2.3816,-2.3888,-2.39,-2.391,-2.3882,-2.3918,-2.3941,-2.3928,-2.4074,-2.4036,-2.4054,-2.4102,-2.4247,-2.4254,-2.426,-2.4296,-2.4309,-2.432,0,0,0,0,0,0,-2.367,-2.3718,-2.3711,-2.3801,-2.3841,-2.3885,-2.393,-2.3923,-2.3972,-2.3967,-2.3977,-2.3988,-2.4072,-2.4095,-2.4052,-2.4196,-2.4156,-2.4167,-2.4178,-2.419,-2.42,-2.4193,-2.4019,0,0,0,0,0,-2.3688,-2.3742,-2.3781,-2.3857,-2.3877,-2.39,-2.3932,-2.3936,-2.3978,-2.3995,-2.4024,-2.4065,-2.412,-2.4157,-2.4209,-2.4304,-2.4315,-2.4346,-2.4356,-2.4364,-2.4373,-2.4426,-2.444,-2.4286,-2.4286,-2.4286,0,0,-2.3724,-2.3757,-2.379,-2.3864,-2.3895,-2.3952,-2.3915,-2.3976,-2.4019,-2.4004,-2.4083,-2.4106,-2.4153,-2.4242,-2.4282,-2.4264,-2.4418,-2.4373,-2.4379,-2.4384,-2.4434,-2.4449,-2.4462,-2.4291,-2.429,-2.4289,0,0,-2.3819,-2.3849,-2.3916,-2.3948,-2.3995,-2.401,-2.4026,-2.4072,-2.4086,-2.4166,-2.4156,-2.4207,-2.4302,-2.4336,-2.4366,-2.4474,-2.4465,-2.4491,-2.4544,-2.4595,-2.4607,-2.4618,-2.4658,-2.4672,-2.45,-2.45,-2.45,0,-2.3858,-2.3943,-2.3951,-2.4014,-2.4046,-2.4036,-2.4104,-2.4134,-2.4197,-2.422,-2.4198,-2.4317,-2.4348,-2.4445,-2.4471,-2.4496,-2.4515,-2.4486,-2.4604,-2.4615,-2.4626,-2.4664,-2.4678,-2.4503,-2.4503,-2.4503,-2.4502,0,-2.3989,-2.4048,-2.4096,-2.4157,-2.4195,-2.426,-2.4278,-2.4316,-2.4317,-2.4335,-2.4416,-2.4453,-2.4513,-2.4536,-2.4538,-2.4634,-2.4621,-2.4602,-2.4562,-2.4643,-2.4679,-2.4694,-2.4508,-2.4506,-2.4506,-2.4505,0,0,-2.4107,-2.4171,-2.4188,-2.4216,-2.4268,-2.4314,-2.4379,-2.4437,-2.447,-2.4514,-2.4569,-2.4649,-2.4632,-2.4666,-2.4671,-2.4716,-2.4801,-2.4691,-2.4693,-2.4711,-2.491,-2.4925,-2.4941,-2.4795,-2.4797,-2.48,-2.4907,0,-2.4207,-2.4321,-2.433,-2.4433,-2.4488,-2.4479,-2.4536,-2.4574,-2.4593,-2.4643,-2.4663,-2.472,-2.4693,-2.4713,-2.4757,-2.4781,-2.4841,-2.4773,-2.4847,-2.485,-2.4836,-2.496,-2.4976,-2.5075,-2.4921,-2.4923,-2.4925,0,-2.434,-2.4387,-2.4495,-2.454,-2.4563,-2.4614,-2.4669,-2.4716,-2.476,-2.477,-2.4808,-2.4808,-2.4875,-2.4833,-2.4927,-2.4881,-2.4912,-2.4928,-2.4932,-2.494,-2.4892,-2.4972,-2.5107,-2.5122,-2.4947,-2.4945,-2.4943,0,-2.4416,-2.4506,-2.4583,-2.4607,-2.466,-2.4697,-2.4721,-2.4762,-2.4797,-2.4845,-2.4867,-2.4923,-2.4954,-2.4997,-2.5012,-2.4979,-2.5105,-2.5064,-2.5117,-2.5117,-2.5144,-2.5142,-2.5286,-2.5163,-2.5163,-2.5162,-2.5162,0,-2.4527,-2.4594,-2.4618,-2.4665,-2.474,-2.475,-2.4824,-2.4846,-2.4883,-2.4935,-2.4931,-2.498,-2.4996,-2.5048,-2.506,-2.5136,-2.515,-2.5161,-2.5164,-2.5162,-2.5161,-2.5183,-2.5176,-2.5166,-2.5165,-2.5165,-2.5164,0,-2.4625,-2.4643,-2.4726,-2.477,-2.4783,-2.4836,-2.4874,-2.4921,-2.4938,-2.5004,-2.502,-2.5048,-2.511,-2.5128,-2.5202,-2.521,-2.53,-2.5296,-2.5285,-2.5286,-2.5338,-2.5333,-2.5501,-2.5524,-2.5385,-2.5386,-2.5387,0,-2.4695,-2.4746,-2.4796,-2.483,-2.4855,-2.4911,-2.4946,-2.4958,-2.4996,-2.505,-2.509,-2.515,-2.5199,-2.5297,-2.5325,-2.5382,-2.538,-2.5435,-2.5388,-2.5385,-2.5381,-2.5378,-2.5384,-2.5444,-2.5445,-2.5446,-2.5447,0,-2.4818,-2.4825,-2.4875,-2.493,-2.4972,-2.5016,-2.5058,-2.5086,-2.5105,-2.5147,-2.5209,-2.5247,-2.5323,-2.5383,-2.5441,-2.5467,-2.5461,-2.5462,-2.5477,-2.5476,-2.5468,-2.5474,-2.531,-2.5458,-2.5457,-2.5456,-2.5455,-2.5455,-2.4905,-2.495,-2.4992,-2.5049,-2.5082,-2.5121,-2.5167,-2.519,-2.5242,-2.5304,-2.5308,-2.5376,-2.5419,-2.5496,-2.5525,-2.5579,-2.5563,-2.5585,-2.5591,-2.5596,-2.5601,-2.5459,-2.5589,-2.5589,-2.5589,-2.5589,-2.5588,0,-2.5028,-2.5055,-2.5107,-2.5166,-2.5211,-2.52,-2.5246,-2.5285,-2.5345,-2.5385,-2.5433,-2.5506,-2.5564,-2.5597,-2.5655,-2.5692,-2.5691,-2.5708,-2.5705,-2.5712,-2.5611,-2.5592,-2.5708,-2.5708,-2.5708,-2.5707,-2.5707,-2.5707,-2.5098,-2.5174,-2.5186,-2.5278,-2.5305,-2.5371,-2.5398,-2.5435,-2.5467,-2.5548,-2.5596,-2.5617,-2.5654,-2.5716,-2.577,-2.5778,-2.58,-2.5819,-2.5825,-2.5731,-2.5718,-2.5707,-2.5689,-2.5823,-2.5823,-2.5921,-2.5922,-2.5923]}]]